Flag Weather past 2 weeks in Jalalabad, Afghanistan

Now
66 °F

Passing clouds.


Feels Like: 66 °F
Forecast: 45 / 69 °F
Wind: No wind

Location: Peshawar Airport

Current Time: Nov 26, 2014 at 6:35:08 PM

Latest Report: Nov 26, 2014 at 5:30 PM


Visibility: 2 mi

Pressure: 29.80 "Hg

Humidity: 46%

Dew point: 45 °F

Location of JalalabadLocation

Historic Weather in Jalalabad — Graph

°F

Jalalabad temperature yesterday

Maximum temperature yesterday: 72 °F (at 1:30 PM)
Minimum temperature yesterday: 45 °F (at 6:30 AM)
Average temperature yesterday: 57 °F

Past Weeks' High & Low Weather Summary

 TemperatureHumidityPressure
High90 °F (Nov 20, 1:30 PM)88% (Nov 19, 5:30 PM)30.15 "Hg (Nov 19, 5:30 PM)
Low41 °F (Nov 26, 4:29 AM)22% (Nov 20, 1:30 PM)29.80 "Hg (Nov 26, 2:30 PM)
Average61 °F56%30.02 "Hg
* Reported Nov 11 5:30 PM — Nov 26 5:30 PM, Jalalabad, Weather by CustomWeather, © 2014

Note: Actual official high and low records may vary slightly from our data, if they occured in-between our weather recording intervals... More about our weather records

Advertising

Jalalabad weather history for previous 24 hours

 ConditionsComfort  
Time TempWeatherWind HumidityBarometerVisibility
5:30 PM
Nov 26
66 °FPassing clouds.No wind46%29.80 "Hg1 mi
4:30 PM72 °FScattered clouds.No wind41%29.80 "Hg2 mi
3:30 PM73 °FScattered clouds.No wind31%29.80 "Hg2 mi
2:30 PM77 °FLight snow. Cloudy.N/A28%29.80 "HgN/A
1:30 PM77 °FLight snow. Cloudy.N/A32%29.83 "HgN/A
12:30 PM75 °FHaze.No wind36%29.86 "Hg2 mi
11:30 AM70 °FHaze.No wind43%29.92 "Hg2 mi
10:30 AM68 °FHaze.No wind49%29.95 "Hg1 mi
9:30 AM59 °FSunny.No wind59%29.95 "Hg1 mi
8:30 AM55 °FCool.N/A63%29.95 "HgN/A
7:30 AM48 °FCool.N/A71%29.95 "HgN/A
6:30 AM48 °FScattered clouds.No wind82%29.92 "Hg2 mi
5:30 AM46 °FPassing clouds.No wind71%29.95 "Hg2 mi
4:29 AM41 °FPassing clouds.No wind87%30.01 "Hg2 mi
3:30 AM48 °FPassing clouds.No wind71%29.98 "Hg2 mi
2:30 AM50 °FPassing clouds.No wind67%29.98 "Hg2 mi
1:30 AM52 °FHaze.No wind72%30.01 "Hg2 mi
12:30 AM52 °FHaze.No wind72%30.01 "Hg2 mi
11:30 PM
Nov 25
52 °FHaze.No wind72%30.01 "Hg2 mi
10:30 PM52 °FHaze.No wind72%30.01 "Hg2 mi
9:30 PM54 °FClear.No wind67%30.01 "Hg2 mi
8:30 PM55 °FClear.No wind63%30.01 "Hg2 mi
7:30 PM57 °FPassing clouds.No wind63%30.01 "Hg1 mi
6:30 PM59 °FPassing clouds.No wind63%29.98 "Hg1 mi
Weather by CustomWeather, © 2014

See weather overviewHow to use our weather pages